Regional Weather Roundup
Issued by NWS

Home | Current Version | Previous Version | Text Only | Print | Product List | Glossary Off
Versions: 1 2 3 4 5 6 7 8 9 10 11 12 13 14 15 16 17 18 19 20 21 22 23 24 25 26 27 28 29 30 31 32 33 34 35 36 37 38 39 40 41 42 43 44 45 46 47 48 49 50

000
ASUS43 KTOP 261608
RWRKS

WEATHER ROUNDUP FOR KANSAS
NATIONAL WEATHER SERVICE GOODLAND KS
1100 AM CDT THU MAR 26 2015

NOTE:  "FAIR" INDICATES FEW OR NO CLOUDS BELOW 12,000 FEET WITH NO
SIGNIFICANT WEATHER AND/OR OBSTRUCTIONS TO VISIBILITY.

KSZ001>006-013>018-027>032-041>047-261700-
NORTHWEST KANSAS

CITY           SKY/WX    TMP DP  RH WIND       PRES   REMARKS
GOODLAND       PTSUNNY   50  34  54 W13       30.18F
HAYS           SUNNY     43  27  52 S5        30.25F
HILL CITY      MOSUNNY   44  32  62 SW8       30.23F
RUSSELL        SUNNY     42  29  59 VRB3      30.23F
$$

KSZ061>065-074>080-084>089-261700-
SOUTHWEST KANSAS

CITY           SKY/WX    TMP DP  RH WIND       PRES   REMARKS
DODGE CITY     SUNNY     44  29  55 VRB5      30.26F
ELKHART          N/A     47  36  66 W6          N/A
GARDEN CITY    SUNNY     43  34  70 SW10      30.24F
GREAT BEND     MOSUNNY   43  27  52 CALM      30.26F
LIBERAL        SUNNY     45  36  70 NW3       30.29S
PRATT          SUNNY     43  30  61 N6        30.28S
$$

KSZ066>073-081>083-090>101-261700-
SOUTHEAST KANSAS

CITY           SKY/WX    TMP DP  RH WIND       PRES   REMARKS
CHANUTE        SUNNY     45  29  53 N14G23    30.21F
COFFEYVILLE    SUNNY     47  32  56 N17G23    30.22R
HUTCHINSON     SUNNY     46  28  49 N8        30.27S
MEDICINE LODGE   N/A     46  29  51 N9        30.27F
NEWTON         SUNNY     43  27  52 N13       30.27S
PARSONS          N/A     46  31  55 N12G23    30.23
WICHITA INTL   MOSUNNY   45  27  49 N10       30.26S
WICHITA JABRA  SUNNY     45  27  49 N13       30.26R
WICHITA MCCONL SUNNY     45  27  50 N13       30.26R
WINFIELD       SUNNY     47  28  47 N13       30.27R
$$

KSZ007>012-019>026-033>040-048>060-102>105-261700-
NORTHEAST KANSAS

CITY           SKY/WX    TMP DP  RH WIND       PRES   REMARKS
CONCORDIA      SUNNY     42  26  53 W3        30.24F
EMPORIA        SUNNY     44  27  51 N13G21    30.24R
LAWRENCE       SUNNY     44  29  55 N9G17     30.23F
MANHATTAN      SUNNY     42  28  57 CALM      30.26F
MARYSVILLE     SUNNY     41  30  65 NW6       30.24F
OLATHE IND     SUNNY     43  26  51 N16G23    30.22S
OLATHE EXE     SUNNY     43  24  47 N14       30.20F
SALINA         SUNNY     42  31  64 CALM      30.27F
TOPEKA BILLARD SUNNY     43  28  55 N8        30.24F
TOPEKA FORBES  SUNNY     43  29  57 N9        30.23S
$$


USA.gov is the U.S. government's official web portal to all federal, state and local government web resources and services.